Regional Weather Roundup
Issued by NWS Cleveland, OH

Home | Current Version | Previous Version | Graphics & Text | Print | Product List | Glossary On
Versions: 1 2 3 4 5 6 7 8 9 10 11 12 13 14 15 16 17 18 19 20 21 22 23 24 25 26 27 28 29 30 31 32 33 34 35 36 37 38 39 40 41 42 43 44 45 46 47 48 49 50
000
ASUS41 KCLE 271602
RWRCLE
OHIO REGIONAL WEATHER ROUNDUP
NATIONAL WEATHER SERVICE CLEVELAND, OH
1100 AM EST MON FEB 27 2017

NOTE: "FAIR" INDICATES FEW OR NO CLOUDS BELOW 12,000 FEET WITH NO
SIGNIFICANT WEATHER AND/OR OBSTRUCTIONS TO VISIBILITY.

OHZ001>008-015>018-024>027-034-035-043-044-271700-
   NORTHWEST OHIO

CITY           SKY/WX    TMP DP  RH WIND       PRES   REMARKS
DEFIANCE       PTSUNNY   42  30  62 SW7       30.25R
FINDLAY        CLOUDY    43  30  60 S7        30.25R
TOLEDO EXPRESS SUNNY     45  28  51 VRB6      30.24R
TOLEDO EXEC    SUNNY     45  28  51 SW9       30.26R
LIMA           CLOUDY    44  32  62 S7        30.24F
$$

OHZ009>014-019>023-028>033-038-089-271700-
   NORTHEAST OHIO

CITY           SKY/WX    TMP DP  RH WIND       PRES   REMARKS
CLE-HOPKINS    CLOUDY    46  26  45 SW12      30.29S
CLE-LAKEFRONT  CLOUDY    48  23  37 SW15      30.27R
CUY CO. ARPT   PTSUNNY   46  23  39 SW9       30.27R
LORAIN-ELYRIA  CLOUDY    43  27  53 W13       30.27S
ASHTABULA      CLOUDY    43  21  41 SW12      30.29R
AKRON-CANTON   CLOUDY    42  20  41 SW7       30.28S
WOOSTER        CLOUDY    39  23  52 SW6       30.29R
MANSFIELD      CLOUDY    43  25  49 S8        30.26S
YOUNGSTOWN     CLOUDY    42  22  44 SW8       30.29R
$$

OHZ042-051>053-060>062-070>072-077>081-271700-
  SOUTHWEST OHIO

CITY           SKY/WX    TMP DP  RH WIND       PRES   REMARKS
CINC-COVINGTON CLOUDY    43  40  89 SE10      30.25R
CINC-LUNKEN    CLOUDY    44  42  93 SE3       30.29R
HAMILTON       PTSUNNY   47  39  74 VRB7      30.28R
DAYTON         PTSUNNY   46  35  65 S10       30.25F
WRIGHT-PAT AFB CLOUDY    47  38  70 S9        30.25F
DAYTON GENERAL PTSUNNY   45  38  76 S10       30.25S
WILMINGTON     LGT RAIN  41  39  93 S9        30.27S
$$

OHZ036-037-039>041-045>050-054>059-063>069-073>076-082>088-271700-
  CENTRAL AND SOUTHEAST OHIO

CITY           SKY/WX    TMP DP  RH WIND       PRES   REMARKS
COLUMBUS       CLOUDY    46  36  68 S15       30.29R
OSU AIRPORT    CLOUDY    44  36  73 S12       30.27S
BOLTON FIELD   LGT RAIN  43  39  87 S12       30.29R
RICKENBACK AFB RAIN      41  40  96 S10       30.29S
NEWARK         CLOUDY    44  34  67 S12G20    30.29S
MARION         CLOUDY    44  27  51 S10       30.27S
LANCASTER      LGT RAIN  43  39  86 S9        30.31S
ZANESVILLE     LGT RAIN  42  34  73 S10       30.31S
NEW PHILLY     NOT AVBL
$$




USA.gov is the U.S. government's official web portal to all federal, state and local government web resources and services.